BEIDOU 16 (C02)

Last updated on Dec. 12, 2019, 4:25 a.m. UTC

1 38953U 12059A   19345.85083278 -.00000157  00000-0  00000+0 0  9991
2 38953   1.4963  83.4765 0006190 204.6558 182.5009  1.00272756 26195
UTC
Height (km)
Latitude
Longitude
Inclination
Orbital Period
UTC large
Height (km)
Speed (km/s)
/
Latitude / Longitude
Inclination (degrees)
Orbital Period (minutes)
Azimuth
Elevation
Range (km)
Doppler Factor
iOS Compass Heading
iOS Angle

Next 30 passes for location: Hong Kong

Rise time Rise Azimuth (degrees) Set time Set Azimuth (degrees) Duration Max altitude (degrees)

No matching passes for this satellites